• In Österreich
  • Länderverzeichnis
  • Für 7 Tage
  • Wassertemperatur
  • Satellitenkarten
  • Wetterkarte
  • News
  • Widgets
  • user-avatar
    Anmelden

    Stündliche Wetter Ivanischevo

    Heute, 14 August, Dienstag

    Zeit Temperatur Niederschläge Wind Luftdruck Luftfeuchtigkeit
    00:00 +12°C° 0 mm 2 m/S 738 mmHg 96%
    01:00 +12°C° 0 mm 2 m/S 738 mmHg 97%
    02:00 +10°C° 0 mm 2 m/S 738 mmHg 98%
    03:00 +10°C° 0 mm 2 m/S 738 mmHg 98%
    04:00 +10°C° 0 mm 2 m/S 738 mmHg 98%
    05:00 +11°C° 0 mm 1 m/S 739 mmHg 98%
    06:00 +13°C° 0 mm 1 m/S 739 mmHg 90%
    07:00 +15°C° 0 mm 1 m/S 739 mmHg 83%
    08:00 +19°C° 0 mm 1 m/S 739 mmHg 73%
    09:00 +20°C° 0 mm 1 m/S 739 mmHg 66%
    10:00 +20°C° 0 mm 2 m/S 739 mmHg 58%
    11:00 +23°C° 0 mm 2 m/S 740 mmHg 51%
    12:00 +23°C° 0 mm 2 m/S 739 mmHg 49%
    13:00 +24°C° 0 mm 2 m/S 739 mmHg 46%
    14:00 +24°C° 0 mm 2 m/S 739 mmHg 44%
    15:00 +24°C° 0 mm 1 m/S 739 mmHg 48%
    16:00 +24°C° 0 mm 1 m/S 739 mmHg 52%
    17:00 +24°C° 0 mm 1 m/S 739 mmHg 55%
    18:00 +22°C° 0 mm 1 m/S 739 mmHg 62%
    19:00 +19°C° 0 mm 1 m/S 739 mmHg 70%
    20:00 +16°C° 0 mm 1 m/S 738 mmHg 77%
    21:00 +16°C° 0 mm 1 m/S 738 mmHg 81%
    22:00 +15°C° 0 mm 1 m/S 738 mmHg 84%
    23:00 +15°C° 0 mm 1 m/S 738 mmHg 88%

    Morgen, 15 August, Mittwoch

    Zeit Temperatur Niederschläge Wind Luftdruck Luftfeuchtigkeit
    00:00 +15°C° 0 mm 2 m/S 738 mmHg 90%
    01:00 +15°C° 0 mm 2 m/S 738 mmHg 93%
    02:00 +15°C° 0 mm 2 m/S 738 mmHg 95%
    03:00 +15°C° 0,1 mm 2 m/S 737 mmHg 95%
    04:00 +16°C° 0,1 mm 3 m/S 736 mmHg 95%
    05:00 +16°C° 0,1 mm 3 m/S 736 mmHg 94%
    06:00 +17°C° 0,1 mm 3 m/S 736 mmHg 91%
    07:00 +19°C° 0,1 mm 4 m/S 735 mmHg 88%
    08:00 +20°C° 0,1 mm 4 m/S 735 mmHg 85%
    09:00 +21°C° 0,6 mm 4 m/S 735 mmHg 85%
    10:00 +22°C° 0,6 mm 4 m/S 735 mmHg 85%
    11:00 +22°C° 0,6 mm 4 m/S 734 mmHg 84%
    12:00 +22°C° 0,8 mm 4 m/S 734 mmHg 85%
    13:00 +22°C° 0,8 mm 4 m/S 734 mmHg 86%
    14:00 +22°C° 0,8 mm 5 m/S 734 mmHg 86%
    15:00 +22°C° 0,3 mm 4 m/S 735 mmHg 84%
    16:00 +22°C° 0,3 mm 4 m/S 735 mmHg 83%
    17:00 +22°C° 0,3 mm 3 m/S 735 mmHg 81%
    18:00 +20°C° 0 mm 3 m/S 735 mmHg 85%
    19:00 +19°C° 0 mm 2 m/S 735 mmHg 90%
    20:00 +17°C° 0 mm 2 m/S 736 mmHg 94%
    21:00 +16°C° 0 mm 2 m/S 736 mmHg 95%
    22:00 +16°C° 0 mm 1 m/S 736 mmHg 96%
    23:00 +15°C° 0 mm 1 m/S 736 mmHg 97%

    übermorgen, 16 August, Donnerstag

    Zeit Temperatur Niederschläge Wind Luftdruck Luftfeuchtigkeit
    00:00 +15°C° 0 mm 1 m/S 736 mmHg 97%
    01:00 +15°C° 0 mm 1 m/S 737 mmHg 97%
    02:00 +14°C° 0 mm 1 m/S 737 mmHg 97%
    03:00 +14°C° 0 mm 1 m/S 737 mmHg 97%
    04:00 +15°C° 0 mm 1 m/S 738 mmHg 97%
    05:00 +15°C° 0 mm 1 m/S 738 mmHg 98%
    06:00 +15°C° 0 mm 1 m/S 738 mmHg 95%
    07:00 +16°C° 0 mm 1 m/S 739 mmHg 93%
    08:00 +18°C° 0 mm 1 m/S 739 mmHg 91%
    09:00 +17°C° 0,1 mm 2 m/S 739 mmHg 88%
    10:00 +18°C° 0,1 mm 2 m/S 740 mmHg 84%
    11:00 +18°C° 0,1 mm 2 m/S 740 mmHg 81%
    12:00 +19°C° 0,1 mm 2 m/S 740 mmHg 78%
    13:00 +19°C° 0,1 mm 2 m/S 741 mmHg 75%
    14:00 +20°C° 0,1 mm 3 m/S 741 mmHg 72%
    15:00 +20°C° 0 mm 3 m/S 741 mmHg 71%
    16:00 +20°C° 0 mm 3 m/S 741 mmHg 70%
    17:00 +20°C° 0 mm 2 m/S 741 mmHg 69%
    18:00 +18°C° 0 mm 2 m/S 742 mmHg 76%
    19:00 +17°C° 0 mm 2 m/S 742 mmHg 84%
    20:00 +15°C° 0 mm 1 m/S 743 mmHg 92%
    21:00 +14°C° 0 mm 1 m/S 743 mmHg 93%
    22:00 +14°C° 0 mm 1 m/S 743 mmHg 94%
    23:00 +13°C° 0 mm 1 m/S 743 mmHg 95%

    17 August, Freitag

    Zeit Temperatur Niederschläge Wind Luftdruck Luftfeuchtigkeit
    00:00 +13°C° 0 mm 1 m/S 744 mmHg 95%
    01:00 +12°C° 0 mm 1 m/S 744 mmHg 95%
    02:00 +12°C° 0 mm 1 m/S 744 mmHg 95%
    03:00 +12°C° 0 mm 1 m/S 744 mmHg 95%
    04:00 +12°C° 0 mm 1 m/S 744 mmHg 95%
    05:00 +11°C° 0 mm 1 m/S 745 mmHg 95%
    06:00 +14°C° 0 mm 1 m/S 745 mmHg 87%
    07:00 +16°C° 0 mm 1 m/S 745 mmHg 79%
    08:00 +19°C° 0 mm 1 m/S 745 mmHg 71%
    09:00 +19°C° 0 mm 2 m/S 745 mmHg 64%
    10:00 +21°C° 0 mm 2 m/S 745 mmHg 58%
    11:00 +23°C° 0 mm 2 m/S 745 mmHg 52%
    12:00 +24°C° 0 mm 2 m/S 745 mmHg 50%
    13:00 +24°C° 0 mm 2 m/S 745 mmHg 49%
    14:00 +25°C° 0 mm 2 m/S 745 mmHg 47%
    15:00 +24°C° 0 mm 2 m/S 744 mmHg 51%
    16:00 +24°C° 0 mm 2 m/S 744 mmHg 55%
    17:00 +24°C° 0 mm 2 m/S 744 mmHg 60%
    18:00 +21°C° 0 mm 1 m/S 744 mmHg 67%
    19:00 +19°C° 0 mm 1 m/S 744 mmHg 74%
    20:00 +16°C° 0 mm 1 m/S 744 mmHg 82%
    21:00 +15°C° 0 mm 1 m/S 744 mmHg 84%
    22:00 +15°C° 0 mm 1 m/S 744 mmHg 86%
    23:00 +14°C° 0 mm 1 m/S 744 mmHg 87%

    18 August, Samstag

    Zeit Temperatur Niederschläge Wind Luftdruck Luftfeuchtigkeit
    00:00 +13°C° 0 mm 1 m/S 744 mmHg 89%
    01:00 +13°C° 0 mm 1 m/S 744 mmHg 90%
    02:00 +13°C° 0 mm 1 m/S 744 mmHg 91%
    03:00 +12°C° 0 mm 1 m/S 744 mmHg 92%
    04:00 +12°C° 0 mm 1 m/S 744 mmHg 93%
    05:00 +12°C° 0 mm 1 m/S 744 mmHg 94%
    06:00 +14°C° 0 mm 2 m/S 744 mmHg 86%
    07:00 +17°C° 0 mm 2 m/S 744 mmHg 78%
    08:00 +19°C° 0 mm 2 m/S 745 mmHg 70%
    09:00 +20°C° 0 mm 2 m/S 744 mmHg 64%
    10:00 +22°C° 0 mm 3 m/S 744 mmHg 59%
    11:00 +25°C° 0 mm 3 m/S 744 mmHg 53%
    12:00 +25°C° 0 mm 3 m/S 744 mmHg 52%
    13:00 +26°C° 0 mm 3 m/S 744 mmHg 52%
    14:00 +26°C° 0 mm 3 m/S 743 mmHg 51%
    15:00 +26°C° 0 mm 3 m/S 743 mmHg 55%
    16:00 +25°C° 0 mm 2 m/S 743 mmHg 59%
    17:00 +25°C° 0 mm 2 m/S 743 mmHg 63%
    18:00 +23°C° 0 mm 2 m/S 742 mmHg 70%
    19:00 +20°C° 0 mm 2 m/S 742 mmHg 78%
    20:00 +18°C° 0 mm 2 m/S 742 mmHg 86%
    21:00 +17°C° 0 mm 2 m/S 742 mmHg 87%
    22:00 +17°C° 0 mm 2 m/S 742 mmHg 89%
    23:00 +16°C° 0 mm 2 m/S 742 mmHg 90%

    19 August, Sonntag

    Zeit Temperatur Niederschläge Wind Luftdruck Luftfeuchtigkeit
    00:00 +16°C° 0 mm 2 m/S 742 mmHg 92%
    01:00 +16°C° 0 mm 2 m/S 741 mmHg 93%
    02:00 +15°C° 0 mm 2 m/S 741 mmHg 94%
    03:00 +15°C° 0,1 mm 2 m/S 741 mmHg 94%
    04:00 +15°C° 0,1 mm 2 m/S 741 mmHg 95%
    05:00 +15°C° 0,1 mm 2 m/S 741 mmHg 96%
    06:00 +16°C° 0 mm 2 m/S 741 mmHg 92%
    07:00 +18°C° 0 mm 2 m/S 741 mmHg 87%
    08:00 +19°C° 0 mm 2 m/S 741 mmHg 83%
    09:00 +20°C° 0,1 mm 2 m/S 740 mmHg 82%
    10:00 +21°C° 0,1 mm 2 m/S 740 mmHg 80%
    11:00 +23°C° 0,1 mm 2 m/S 740 mmHg 78%
    12:00 +22°C° 0,1 mm 3 m/S 740 mmHg 76%
    13:00 +24°C° 0,1 mm 3 m/S 740 mmHg 73%
    14:00 +25°C° 0,1 mm 3 m/S 740 mmHg 70%
    15:00 +24°C° 0,6 mm 2 m/S 739 mmHg 75%
    16:00 +24°C° 0,6 mm 2 m/S 739 mmHg 80%
    17:00 +23°C° 0,6 mm 2 m/S 739 mmHg 85%
    18:00 +21°C° 0,2 mm 2 m/S 739 mmHg 88%
    19:00 +19°C° 0,2 mm 2 m/S 739 mmHg 90%
    20:00 +19°C° 0,2 mm 1 m/S 739 mmHg 93%
    21:00 +18°C° 0 mm 1 m/S 739 mmHg 93%
    22:00 +16°C° 0 mm 2 m/S 739 mmHg 94%
    23:00 +15°C° 0 mm 2 m/S 739 mmHg 94%
    Mehr zeigen